RH
43 42 40 42 43 43 36 18 23 28 24 51 66 90 77 67 31 19 22 68 94 100 100 100 100 100 100 97 92 100 100 100 98 100 100 100 97 94 87 60 65 72 72
44 48 52 44 44 25 11 35 52 24 23 17 15 16 20 23 25 52 91 100 100 100 100 100 100 100 100 100 100 96 90 95 95 100 100 98 97 100 100 82 59 53 54
64 72 59 42 14 10 11 16 13 12 14 14 14 24 40 69 99 100 100 100 100 100 100 100 94 96 98 95 95 98 95 84 77 74 73 74 72 70 62 57 57 57 63
100 99 68 20 9 14 14 11 10 12 15 17 44 80 89 96 97 100 100 100 100 100 100 100 100 99 98 99 97 96 100 99 97 91 80 73 72 73 72 71 71 71 66
99 87 46 15 18 14 11 10 12 17 37 76 86 90 96 96 94 100 100 100 100 100 100 100 100 99 100 97 90 90 92 89 83 78 74 70 66 62 59 56 56 55 54
79 42 20 19 15 12 10 13 21 45 89 88 91 92 82 67 54 47 44 48 61 76 83 89 89 90 93 90 84 76 72 65 58 49 34 21 11 11 10 11 11 11 12
30 20 20 16 12 10 18 24 46 86 93 87 59 38 28 24 22 21 20 20 23 26 28 28 37 49 59 64 64 63 51 29 18 12 11 14 14 11 11 11 12 12 10
23 24 19 12 14 22 30 76 96 92 66 37 25 22 20 18 17 16 15 14 14 14 14 16 20 22 23 25 25 20 15 14 13 15 14 14 19 25 28 26 25 26 28
27 21 14 19 23 40 88 96 82 47 27 24 21 19 18 17 17 16 17 17 17 15 13 12 11 14 17 18 17 16 16 16 14 24 50 74 86 93 97 92 94 84 73
26 17 21 24 30 92 100 69 40 27 25 22 20 20 22 26 26 27 30 28 25 23 22 19 12 9 11 16 18 17 15 35 65 32 31 48 64 81 89 90 99 95 97
20 21 26 27 86 97 73 43 30 28 24 21 22 28 33 39 57 70 67 65 54 36 25 23 14 9 11 16 17 18 65 31 39 47 47 45 42 58 89 95 93 99 100
24 27 27 61 96 82 50 35 31 28 22 23 39 62 75 78 78 63 59 48 69 39 27 24 18 17 17 18 43 82 31 48 62 57 54 57 67 75 76 74 86 84 84
28 27 42 100 92 56 41 34 34 27 22 43 64 76 83 87 86 96 98 48 24 28 30 69 100 100 91 99 98 45 52 63 47 39 26 20 20 28 60 86 88 86 100
27 35 100 99 58 48 40 37 34 25 33 60 74 83 91 100 100 98 67 27 24 94 100 100 100 100 100 100 60 56 63 51 39 31 29 27 20 12 10 16 77 99 98
35 99 100 62 54 49 43 38 35 26 44 64 78 90 93 99 98 71 57 96 100 100 100 100 100 100 100 90 73 69 64 54 41 38 35 32 31 28 16 11 12 24 91
100 100 64 57 56 52 46 42 37 32 49 64 84 100 100 98 83 94 98 100 100 100 100 100 100 100 100 98 83 83 71 60 49 48 48 45 40 38 34 22 12 15 11
100 68 52 54 58 54 50 47 39 33 52 75 90 100 100 100 100 95 100 100 100 100 100 100 100 100 100 100 100 95 78 70 64 59 54 51 50 46 44 38 30 14 23
85 42 38 45 63 59 56 53 46 32 54 76 94 100 100 99 85 97 100 100 100 100 100 100 100 100 100 100 100 100 92 81 73 67 58 52 36 29 26 38 42 40 18
67 40 33 53 68 65 61 61 56 34 39 70 92 99 100 100 79 94 98 100 100 100 100 100 100 100 100 100 100 100 100 97 88 81 71 62 49 32 28 13 21 39 45
62 45 36 56 72 68 68 66 66 50 30 51 80 99 100 99 78 83 92 98 100 100 100 100 100 100 100 100 100 100 100 100 98 91 80 70 64 44 41 30 14 15 27
53 46 36 76 78 73 72 71 68 67 47 30 58 86 100 99 97 78 84 90 99 100 100 100 100 100 100 100 100 100 100 100 100 100 97 84 73 60 59 48 30 18 20
58 43 56 86 80 75 71 70 69 70 67 50 32 63 88 98 99 100 91 88 93 96 98 100 100 100 100 100 100 100 100 100 100 100 100 95 84 79 70 62 47 28 26
64 61 82 92 81 72 65 69 70 66 67 68 56 33 64 90 96 100 100 100 100 98 99 98 97 100 100 100 100 100 100 100 100 100 99 96 94 92 88 80 66 48 37
96 94 99 93 79 63 58 66 72 64 63 64 70 63 36 55 92 97 100 100 100 100 100 100 100 100 100 100 100 100 100 100 100 100 98 93 89 90 93 94 93 80 59
100 100 100 91 74 63 56 62 72 66 60 57 62 72 66 43 45 91 99 100 100 100 100 100 100 100 100 100 100 100 100 100 100 100 100 100 98 88 89 96 98 98 91
100 100 99 90 78 71 63 60 74 70 62 56 57 66 74 69 58 41 87 100 100 100 100 100 100 100 100 100 100 100 100 100 100 100 100 100 100 99 94 95 100 99 98
Wind_Speed
72 74 77 80 82 84 83 82 83 84 86 87 85 86 95 93 80 69 54 50 47 46 46 52 49 51 51 50 57 60 61 64 65 62 62 64 67 70 75 75 75 80 81
75 77 80 84 85 85 83 78 83 88 89 90 90 86 77 65 54 46 44 46 48 47 48 49 48 48 48 47 47 48 55 64 70 69 67 66 66 67 68 68 71 72 73
80 80 88 89 86 84 86 87 88 87 85 81 70 61 49 45 43 44 46 47 48 49 50 50 51 49 48 50 53 51 50 52 55 59 60 64 63 63 66 70 71 73 75
75 87 96 91 90 88 89 88 86 79 70 63 52 48 46 46 46 46 48 49 49 49 49 49 48 48 47 47 45 43 43 45 49 51 50 49 53 55 56 58 60 63 65
78 97 97 93 92 92 88 83 73 63 54 50 50 50 48 46 44 44 45 46 46 46 46 46 45 44 44 43 41 41 43 44 46 49 49 49 52 55 57 59 61 63 65
94 94 93 92 90 87 80 66 60 52 51 52 49 49 49 50 48 49 48 49 50 50 50 50 49 47 45 44 44 44 45 46 46 48 48 47 47 50 53 53 55 57 59
92 91 90 87 83 74 63 56 50 51 51 50 52 53 55 55 53 53 53 52 53 53 53 52 50 49 48 47 47 46 46 45 44 44 43 43 44 44 44 43 43 45 49
88 86 83 78 68 60 52 48 50 50 52 54 56 57 56 55 53 53 52 52 51 51 52 52 52 49 47 44 42 40 39 38 38 40 39 33 32 35 36 37 39 39 40
83 81 73 65 60 49 46 48 49 51 54 57 56 54 52 50 50 49 48 45 44 44 45 45 46 45 43 41 37 33 31 30 30 28 32 32 34 36 38 40 42 45 46
77 70 63 61 51 47 46 48 50 53 56 55 53 51 49 48 48 46 42 38 36 35 35 37 37 35 32 31 27 23 21 21 21 20 20 22 24 27 29 31 32 34 38
69 62 60 53 46 45 46 48 51 54 55 52 50 48 46 45 43 42 40 36 32 29 29 28 26 21 20 19 17 16 14 11 12 14 15 15 16 18 21 22 24 26 27
63 60 55 46 44 44 46 48 52 54 52 48 46 44 43 41 39 36 35 32 26 23 21 17 12 12 11 12 14 11 9 10 12 12 13 15 19 22 25 27 28 27 25
64 55 44 42 41 43 44 48 51 52 48 44 43 42 40 37 34 36 33 26 17 12 6 4 5 6 7 8 8 9 7 6 5 7 10 12 13 17 22 25 28 28 28
54 42 38 37 39 41 43 47 50 49 43 42 40 38 36 35 34 29 23 14 4 4 7 6 4 6 7 11 11 8 1 2 5 9 12 13 16 15 13 17 22 26 27
36 31 33 34 38 39 41 45 48 45 40 40 39 37 35 32 26 19 10 4 5 6 7 5 6 6 9 13 10 6 5 5 6 9 13 16 19 21 20 18 15 18 21
25 28 28 33 36 37 40 44 44 41 40 39 38 34 31 25 17 7 3 6 6 5 6 6 8 11 13 12 10 8 6 5 5 8 11 14 16 20 24 25 21 13 10
25 23 28 32 35 36 39 42 41 39 37 38 36 29 25 19 12 2 5 6 6 4 4 6 9 11 12 11 9 7 6 5 4 4 8 11 15 19 22 25 27 23 13
19 23 28 34 36 36 38 40 39 37 35 36 33 27 22 17 6 2 5 6 7 5 2 3 4 7 8 8 7 6 5 3 2 2 4 9 12 15 18 21 24 27 23
19 25 30 34 36 36 37 39 37 36 33 33 31 26 22 12 3 4 4 4 5 6 5 2 2 3 5 7 7 5 4 4 2 1 3 8 10 12 15 17 19 21 24
21 26 30 35 36 36 37 39 36 34 32 29 29 25 21 11 4 7 7 5 2 3 4 4 3 2 2 3 4 4 3 3 3 3 5 8 9 10 12 15 16 17 18
22 27 30 35 35 35 37 39 36 32 31 28 27 25 19 15 8 11 12 11 9 6 4 1 0 0 1 1 3 4 4 6 6 5 6 7 8 9 11 12 12 12 13
24 27 31 34 34 35 37 39 36 32 30 29 25 23 21 16 13 12 16 17 15 14 12 10 7 6 6 4 4 4 5 5 6 6 7 8 7 9 10 10 10 9 10
25 28 30 33 33 35 38 38 35 32 30 28 26 23 21 19 16 14 14 19 20 20 18 16 15 14 12 11 9 9 8 8 7 7 8 9 10 11 12 12 11 10 9
25 28 30 31 32 35 38 38 33 31 29 29 26 25 22 20 17 17 16 15 20 23 22 22 21 20 19 18 16 15 13 12 12 11 11 11 11 12 13 14 14 13 12
25 27 30 29 30 34 38 37 32 30 29 29 28 25 24 22 19 18 17 17 17 21 25 25 25 24 24 23 22 21 19 18 17 17 17 16 16 16 17 17 18 17 16
25 28 27 28 31 35 38 37 32 29 28 29 28 26 24 24 21 19 17 17 17 17 20 25 27 27 27 26 25 24 23 23 22 22 21 21 21 21 21 21 21 20 19
Wind_Direction
307 306 305 307 309 309 309 307 306 306 305 304 300 296 295 300 299 294 294 292 287 282 278 271 275 262 265 267 259 259 257 258 257 256 260 259 254 254 255 255 251 249 251
304 307 310 312 312 311 311 307 302 305 304 300 300 302 301 296 295 293 288 279 278 275 278 276 275 270 270 271 267 264 261 262 260 256 257 258 258 258 260 261 264 261 256
308 311 316 314 313 311 311 311 309 306 304 305 305 303 301 298 294 290 288 285 282 280 278 277 275 273 271 270 272 271 268 265 264 263 261 261 261 261 261 259 258 258 258
304 310 314 315 315 314 314 312 310 308 307 305 306 304 301 297 294 290 287 285 284 283 282 281 279 277 275 273 271 270 267 265 264 265 262 259 260 258 256 254 252 251 250
298 310 313 313 314 317 315 311 310 308 308 306 305 304 301 297 295 291 290 288 285 283 282 282 280 278 276 275 274 272 273 272 270 268 265 261 260 260 258 256 253 252 251
308 310 312 316 318 316 313 311 309 309 308 308 307 304 301 298 296 294 291 288 285 283 281 280 278 277 275 274 274 274 274 274 272 271 271 271 268 265 263 260 257 255 253
310 313 317 317 316 314 313 313 311 309 309 309 307 305 303 301 300 296 293 289 285 282 279 276 275 274 273 272 273 274 276 277 276 277 275 273 271 269 266 263 259 256 254
314 317 317 318 315 316 314 312 312 311 311 310 310 308 306 304 302 299 296 293 289 285 281 276 272 270 269 269 270 273 275 276 275 274 275 269 264 263 262 260 257 256 254
318 317 318 316 318 317 315 313 313 314 315 314 312 311 309 307 304 302 298 295 290 285 282 279 274 269 267 266 268 272 276 278 276 274 277 274 270 268 265 263 260 258 255
316 318 316 318 317 315 315 315 317 318 317 316 316 315 313 309 307 306 304 300 294 289 284 278 273 270 265 263 265 269 268 266 280 284 281 278 274 270 266 263 260 260 259
317 317 316 317 315 316 317 319 320 321 320 320 320 318 314 311 310 310 309 303 296 289 283 278 272 258 247 248 253 240 249 253 269 279 282 282 280 275 272 269 265 265 263
315 314 314 312 315 317 319 321 322 323 324 325 324 321 318 316 316 317 321 314 299 289 284 275 252 232 222 212 212 216 216 256 279 289 294 290 284 277 271 270 271 269 268
311 311 311 312 314 317 321 323 325 326 328 328 326 323 321 318 316 318 321 320 309 294 266 171 179 222 208 202 185 187 225 280 315 333 341 331 316 297 285 276 269 268 263
310 308 309 311 316 320 323 326 327 330 331 331 330 327 324 319 318 322 326 325 340 124 136 145 183 211 201 178 174 181 169 64 25 33 27 20 18 4 338 300 282 270 265
308 309 309 315 320 322 325 329 331 332 333 335 333 333 329 328 328 332 338 47 93 119 125 99 97 127 142 151 169 161 114 78 52 37 25 20 20 18 16 4 327 291 269
312 308 316 322 325 325 329 332 333 334 336 338 339 340 337 343 346 0 57 87 86 92 102 95 108 128 139 145 162 150 128 97 65 28 24 20 17 18 23 25 19 358 316
307 316 324 328 330 328 333 335 336 338 340 340 343 346 343 352 351 48 102 86 67 69 109 113 130 141 147 157 169 166 150 119 80 31 20 19 20 19 20 26 29 25 13
312 321 327 332 333 332 335 337 339 341 342 342 345 346 347 347 344 157 123 83 67 66 107 142 161 172 173 184 192 194 178 154 112 61 20 8 13 14 13 19 26 29 27
312 322 328 333 334 334 337 339 339 342 343 344 345 345 350 349 314 205 166 114 88 80 77 106 177 188 195 199 204 206 196 185 178 210 353 348 356 9 17 16 19 27 32
311 321 327 332 333 334 338 340 339 340 344 344 345 344 345 342 270 235 222 210 171 109 82 79 91 133 174 191 193 189 202 213 231 271 322 331 343 357 11 14 16 20 27
310 318 325 330 331 333 338 340 339 337 342 344 343 341 340 332 280 241 241 237 238 238 238 248 301 73 138 207 251 250 255 264 275 292 307 314 323 337 349 0 7 9 18
310 316 323 328 330 334 337 339 338 336 336 342 341 338 335 328 310 272 246 245 245 246 251 256 258 268 276 276 279 285 284 279 281 287 294 297 306 315 321 334 348 353 359
310 315 322 326 329 333 336 337 336 335 334 333 339 336 331 327 318 300 273 253 249 249 251 255 259 262 266 269 270 269 272 279 283 286 291 297 301 304 308 312 319 324 328
312 317 322 324 328 333 336 335 333 332 333 333 329 334 331 324 320 311 293 276 255 250 250 251 254 259 262 265 268 270 272 273 279 282 284 290 300 303 301 301 301 301 303
315 318 320 321 327 333 338 336 332 330 332 333 331 324 330 325 317 315 304 291 281 259 251 252 253 254 256 261 264 267 270 272 273 276 279 283 290 297 300 299 295 293 291
313 316 317 320 327 331 337 337 331 328 331 332 331 327 322 325 317 309 308 297 289 281 264 253 252 254 256 258 261 264 266 268 268 269 272 275 279 285 292 294 291 289 289